DW0664 Weather Reports


Display with metric or nautical units.
time (UTC)temp
F
wind
direction
speed
MPH
gust
MPH
rain 1hr
in
rain 24hr
in
rain mn
in
humidity
%
barometer
mb
20210613033022 81 229 0.0 0.0 0.00 0.00 0.00 80 1011.6
20210613032514 82 229 0.0 0.0 0.00 0.00 0.00 80 1011.6
20210613032032 82 229 0.0 0.0 0.00 0.00 0.00 80 1011.6
20210613031515 82 229 0.0 0.0 0.00 0.00 0.00 79 1011.5
20210613031013 82 229 0.0 0.0 0.00 0.00 0.00 79 1011.4
20210613030507 82 229 0.0 0.0 0.00 0.00 0.00 79 1011.4
20210613030008 82 229 0.0 0.0 0.00 0.00 0.00 79 1011.4
20210613025510 82 229 0.0 0.0 0.00 0.00 0.00 78 1011.4
20210613025006 83 229 0.0 0.0 0.00 0.00 0.00 78 1011.2
20210613024507 83 229 0.0 0.0 0.00 0.00 0.00 78 1011.3
20210613024006 83 229 0.0 0.0 0.00 0.00 0.00 77 1011.1
20210613023517 83 229 0.0 0.0 0.00 0.00 0.00 77 1011.0
20210613023011 83 229 0.0 0.0 0.00 0.00 0.00 76 1010.9
20210613022507 84 229 0.0 0.0 0.00 0.00 0.00 76 1010.8
20210613022007 84 229 0.0 0.0 0.00 0.00 0.00 76 1010.7
20210613021521 84 229 0.0 0.0 0.00 0.00 0.00 75 1010.7
20210613021009 84 229 0.0 0.0 0.00 0.00 0.00 75 1010.5
20210613020514 84 229 0.0 0.0 0.00 0.00 0.00 75 1010.5
20210613020010 85 229 0.0 0.0 0.00 0.00 0.00 75 1010.5
20210613015512 85 229 0.0 0.0 0.00 0.00 0.00 74 1010.5
20210613015007 85 229 0.0 0.0 0.00 0.00 0.00 73 1010.6
20210613014518 86 229 0.0 0.0 0.00 0.00 0.00 72 1010.7
20210613014007 86 229 0.0 0.0 0.00 0.00 0.00 72 1010.7
20210613013508 86 229 0.0 0.0 0.00 0.00 0.00 71 1010.6
20210613013011 87 229 0.0 0.0 0.00 0.00 0.00 71 1010.6
20210613012507 87 229 0.0 0.0 0.00 0.00 0.00 70 1010.6
20210613012007 87 229 0.0 0.0 0.00 0.00 0.00 71 1010.6
20210613011507 87 229 0.0 0.0 0.00 0.00 0.00 70 1010.6
20210613011007 88 229 0.0 0.0 0.00 0.00 0.00 70 1010.5
20210613010505 88 229 0.0 0.0 0.00 0.00 0.00 70 1010.5
20210613010012 88 229 0.0 0.0 0.00 0.00 0.00 69 1010.5
20210613005505 88 229 0.0 0.0 0.00 0.00 0.00 69 1010.5
20210613005015 88 229 0.0 0.0 0.00 0.00 0.00 69 1010.3
20210613004536 88 229 0.0 0.0 0.00 0.00 0.00 68 1010.4
20210613004005 88 229 0.0 0.0 0.00 0.00 0.00 69 1010.5
20210613003515 89 229 0.0 0.0 0.00 0.00 0.00 68 1010.4
20210613003006 89 229 0.0 0.0 0.00 0.00 0.00 68 1010.4
20210613002505 89 229 0.0 0.0 0.00 0.00 0.00 67 1010.2
20210613002008 89 229 0.0 0.0 0.00 0.00 0.00 67 1010.3
20210613001529 89 229 0.0 0.0 0.00 0.00 0.00 66 1010.1
20210613001007 89 229 0.0 0.0 0.00 0.00 0.00 66 1010.1
20210613000509 90 229 0.0 0.0 0.00 0.00 0.00 66 1010.1
20210613000010 90 229 0.0 0.0 0.00 0.00 0.00 66 1009.7
20210612235505 90 229 0.0 0.0 0.00 0.00 0.00 67 1009.8
20210612235012 90 229 0.0 0.0 0.00 0.00 0.00 67 1010.0
20210612234520 91 229 0.0 0.0 0.00 0.00 0.00 66 1010.2
20210612234002 91 229 0.0 0.0 0.00 0.00 0.00 65 1010.5
20210612233502 91 229 0.0 0.0 0.00 0.00 0.00 66 1010.7
20210612233015 91 229 0.0 0.0 0.00 0.00 0.00 64 1010.7
20210612232501 91 229 0.0 0.0 0.00 0.00 0.00 63 1010.9
20210612232001 92 229 0.0 0.0 0.00 0.00 0.00 63 1010.9
20210612231502 92 229 0.0 0.0 0.00 0.00 0.00 64 1011.0
20210612231003 92 229 0.0 0.0 0.00 0.00 0.00 63 1011.0
20210612230506 92 229 0.0 0.0 0.00 0.00 0.00 63 1011.0
20210612230010 92 229 0.0 0.0 0.00 0.00 0.00 63 1011.1
20210612225502 93 229 0.0 0.0 0.00 0.00 0.00 63 1011.0
20210612225005 93 229 0.0 0.0 0.00 0.00 0.00 61 1011.1
20210612224501 93 229 0.0 0.0 0.00 0.00 0.00 62 1011.1
20210612224005 93 229 0.0 0.0 0.00 0.00 0.00 60 1011.2
20210612223501 93 229 0.0 0.0 0.00 0.00 0.00 61 1011.2
20210612222600 94 229 0.0 0.0 0.00 0.00 0.00 61 1011.3
20210612222102 94 229 0.0 0.0 0.00 0.00 0.00 60 1011.4
20210612221725 93 229 0.0 0.0 0.00 0.00 0.00 62 1011.4
20210612221059 93 229 0.0 0.0 0.00 0.00 0.00 61 1011.5
20210612220316 93 229 0.0 0.0 0.00 0.00 0.00 62 1011.6
20210612215555 93 229 0.0 0.0 0.00 0.00 0.00 61 1011.7
20210612215057 93 229 0.0 0.0 0.00 0.00 0.00 61 1011.6
20210612214641 93 229 0.0 0.0 0.00 0.00 0.00 59 1011.6
20210612214057 93 229 0.0 0.0 0.00 0.00 0.00 60 1011.5
20210612213552 93 229 0.0 0.0 0.00 0.00 0.00 61 1011.5
20210612213057 93 230 0.0 0.0 0.00 0.00 0.00 62 1011.5
20210612212602 93 231 0.0 0.0 0.00 0.00 0.00 61 1011.7
20210612212052 93 231 0.0 0.0 0.00 0.00 0.00 63 1011.7
20210612211602 93 230 0.0 0.0 0.00 0.00 0.00 62 1011.6
20210612211055 94 230 0.0 0.0 0.00 0.00 0.00 59 1011.8
20210612210135 94 230 0.0 0.0 0.00 0.00 0.00 60 1011.7
20210612205552 94 231 0.0 0.0 0.00 0.00 0.00 60 1011.8
20210612205056 94 230 0.0 0.0 0.00 0.00 0.00 61 1011.7
20210612204638 94 231 0.0 0.0 0.00 0.00 0.00 60 1011.8
20210612204045 94 231 0.0 0.0 0.00 0.00 0.00 61 1011.8
20210612203551 94 231 0.0 0.0 0.00 0.00 0.00 61 1011.8
20210612203140 95 231 0.0 0.0 0.00 0.00 0.00 61 1011.8
20210612202543 94 231 0.0 0.0 0.00 0.00 0.00 62 1011.6
20210612202057 94 231 0.0 0.0 0.00 0.00 0.00 64 1011.4
20210612201603 93 231 0.0 0.0 0.00 0.00 0.00 63 1011.5
20210612201041 92 219 0.0 0.0 0.00 0.00 0.00 65 1011.5
20210612200127 92 219 0.0 0.0 0.00 0.00 0.00 65 1011.7
20210612195543 92 213 0.0 0.0 0.00 0.00 0.00 66 1011.9
20210612195042 92 213 0.0 0.0 0.00 0.00 0.00 67 1012.1
20210612194618 92 209 0.0 0.0 0.00 0.00 0.00 64 1012.4
20210612194041 92 208 0.0 0.0 0.00 0.00 0.00 64 1012.4
20210612193558 92 208 0.0 0.0 0.00 0.00 0.00 66 1012.4
20210612193206 92 208 0.0 0.0 0.00 0.00 0.00 66 1012.4
20210612192538 92 208 0.0 0.0 0.00 0.00 0.00 66 1012.4
20210612192038 92 208 0.0 0.0 0.00 0.00 0.00 65 1012.4
20210612191559 92 208 0.0 0.0 0.00 0.00 0.00 64 1012.4
20210612191037 91 182 0.0 0.0 0.00 0.00 0.00 69 1012.4
20210612190146 91 152 0.0 0.0 0.00 0.00 0.00 69 1012.3
20210612185537 91 152 0.0 0.0 0.00 0.00 0.00 68 1012.4
20210612185035 91 152 0.0 0.0 0.00 0.00 0.00 68 1012.5
20210612184547 91 158 0.0 0.0 0.00 0.00 0.00 66 1012.7
20210612184038 91 153 0.0 0.0 0.00 0.00 0.00 67 1012.7
20210612183534 91 154 0.0 0.0 0.00 0.00 0.00 69 1012.7
20210612183222 91 150 0.0 0.0 0.00 0.00 0.00 68 1012.7
20210612182532 90 151 0.0 0.0 0.00 0.00 0.00 69 1012.7
20210612182041 90 150 0.0 0.0 0.00 0.00 0.00 68 1012.7
20210612181642 89 150 0.0 0.0 0.00 0.00 0.00 71 1012.7
20210612181029 88 151 0.0 0.0 0.00 0.00 0.00 73 1012.8
20210612180122 88 151 0.0 0.0 0.00 0.00 0.00 72 1012.8
20210612175528 87 151 0.0 0.0 0.00 0.00 0.00 74 1012.7
20210612175026 87 150 0.0 0.0 0.00 0.00 0.00 72 1012.7
20210612174600 87 150 0.0 0.0 0.00 0.00 0.00 74 1012.5
20210612174024 87 151 0.0 0.0 0.00 0.00 0.00 76 1012.5
20210612173533 86 151 0.0 0.0 0.00 0.00 0.00 77 1012.5
20210612173050 86 151 0.0 0.0 0.00 0.00 0.00 77 1012.5
20210612172521 86 151 0.0 0.0 0.00 0.00 0.00 77 1012.6
20210612172021 85 153 0.0 0.0 0.00 0.00 0.00 78 1012.4
20210612171541 85 153 0.0 0.0 0.00 0.00 0.00 78 1012.4
20210612171026 85 153 0.0 0.0 0.00 0.00 0.00 78 1012.5
20210612170054 85 153 0.0 0.0 0.00 0.00 0.00 78 1012.7
20210612165520 85 153 0.0 0.0 0.00 0.00 0.00 79 1013.0
20210612165022 85 153 0.0 0.0 0.00 0.00 0.00 77 1012.8
20210612164555 85 153 0.0 0.0 0.00 0.00 0.00 77 1012.7
20210612164032 85 153 0.0 0.0 0.00 0.00 0.00 77 1012.9
20210612163531 85 153 0.0 0.0 0.00 0.00 0.00 77 1012.7
20210612163147 86 153 0.0 0.0 0.00 0.00 0.00 77 1013.2
20210612162519 86 153 0.0 0.0 0.00 0.00 0.00 77 1013.3
20210612162023 85 153 0.0 0.0 0.00 0.00 0.00 77 1013.3
20210612161551 85 153 0.0 0.0 0.00 0.00 0.00 75 1013.4
20210612161018 85 153 0.0 0.0 0.00 0.00 0.00 78 1013.5
20210612160028 85 153 0.0 0.0 0.00 0.00 0.00 77 1013.5
20210612155518 85 153 0.0 0.0 0.00 0.00 0.00 77 1013.6
20210612155017 85 153 0.0 0.0 0.00 0.00 0.00 79 1013.8
20210612154606 85 153 0.0 0.0 0.00 0.00 0.00 77 1013.7
20210612154018 85 153 0.0 0.0 0.00 0.00 0.00 81 1014.0
20210612153515 84 153 0.0 0.0 0.00 0.00 0.00 79 1013.6
20210612153116 84 153 0.0 0.0 0.00 0.00 0.00 81 1013.6
20210612152521 83 153 0.0 0.0 0.00 0.00 0.00 80 1013.7
20210612152012 83 153 0.0 0.0 0.00 0.00 0.00 81 1014.0
20210612151534 83 153 0.0 0.0 0.00 0.00 0.00 81 1014.2
20210612151010 82 153 0.0 0.0 0.00 0.00 0.00 82 1014.3
20210612150032 82 153 0.0 0.0 0.00 0.00 0.00 81 1014.4
20210612145511 82 153 0.0 0.0 0.00 0.00 0.00 82 1014.3
20210612145018 82 153 0.0 0.0 0.00 0.00 0.00 82 1014.3
20210612144611 82 153 0.0 0.0 0.00 0.00 0.00 82 1014.4
20210612144010 82 153 0.0 0.0 0.00 0.00 0.00 82 1014.1
20210612143510 82 153 0.0 0.0 0.00 0.00 0.00 81 1013.7
20210612143019 83 153 0.0 0.0 0.00 0.00 0.00 82 1013.6
20210612142516 83 151 0.0 0.0 0.00 0.00 0.00 82 1013.8
20210612142009 83 151 0.0 0.0 0.00 0.00 0.00 82 1014.1
20210612141541 82 151 0.0 0.0 0.00 0.00 0.00 83 1014.4
20210612141007 82 151 0.0 0.0 0.00 0.00 0.00 85 1014.4
20210612140007 81 151 0.0 0.0 0.00 0.00 0.00 86 1014.1
20210612135504 81 151 0.0 0.0 0.00 0.00 0.00 86 1013.8
20210612135007 81 151 0.0 0.0 0.00 0.00 0.00 87 1013.5
20210612134504 80 151 0.0 0.0 0.00 0.00 0.00 88 1013.5
20210612134001 80 151 0.0 0.0 0.00 0.00 0.00 89 1013.5
20210612133600 79 151 0.0 0.0 0.00 0.00 0.00 88 1013.4
20210612133156 79 151 0.0 0.0 0.00 0.00 0.00 89 1013.4
20210612132600 79 151 0.0 0.0 0.00 0.00 0.00 89 1013.5
20210612132104 79 151 0.0 0.0 0.00 0.00 0.00 89 1013.7
20210612131700 79 151 0.0 0.0 0.00 0.00 0.00 89 1013.6
20210612131057 78 151 0.0 0.0 0.00 0.00 0.00 89 1013.6
20210612130146 78 151 0.0 0.0 0.00 0.00 0.00 90 1013.5
20210612125554 78 151 0.0 0.0 0.00 0.00 0.00 90 1013.2
20210612125112 78 151 0.0 0.0 0.00 0.00 0.00 90 1013.1
20210612124712 78 151 0.0 0.0 0.00 0.00 0.00 90 1012.8
20210612124056 78 151 0.0 0.0 0.00 0.00 0.00 90 1012.5
20210612123551 77 151 0.0 0.0 0.00 0.00 0.00 90 1012.4
20210612123122 77 151 0.0 0.0 0.00 0.00 0.00 91 1012.3
20210612122551 77 151 0.0 0.0 0.00 0.00 0.00 91 1012.2
20210612122051 77 151 0.0 0.0 0.00 0.00 0.00 91 1012.1
20210612121804 77 151 0.0 0.0 0.00 0.00 0.00 91 1012.0
20210612121048 77 151 0.0 0.0 0.00 0.00 0.00 91 1012.0
20210612120150 77 151 0.0 0.0 0.00 0.00 0.00 91 1012.0
20210612115606 77 151 0.0 0.0 0.00 0.00 0.00 91 1012.0
20210612115057 77 151 0.0 0.0 0.00 0.00 0.00 91 1012.0
20210612114556 77 151 0.0 0.0 0.00 0.00 0.00 91 1012.1
20210612114043 77 151 0.0 0.0 0.00 0.00 0.00 91 1012.2
20210612113542 77 151 0.0 0.0 0.00 0.00 0.00 91 1012.0
20210612113144 77 151 0.0 0.0 0.00 0.00 0.00 91 1011.6
20210612112540 77 151 0.0 0.0 0.00 0.00 0.00 91 1011.5
20210612112052 77 151 0.0 0.0 0.00 0.00 0.00 91 1011.4
20210612111635 77 151 0.0 0.0 0.00 0.00 0.00 90 1011.3
20210612111047 77 151 0.0 0.0 0.00 0.00 0.00 90 1011.2
20210612110058 77 150 0.0 0.0 0.00 0.00 0.00 91 1011.1
20210612105541 77 150 0.0 0.0 0.00 0.00 0.00 91 1011.0
20210612105045 77 150 0.0 0.0 0.00 0.00 0.00 91 1011.0
20210612104556 77 150 0.0 0.0 0.00 0.00 0.00 91 1011.0
20210612104100 77 150 0.0 0.0 0.00 0.00 0.00 91 1011.0
20210612103542 77 150 0.0 0.0 0.00 0.00 0.00 91 1010.8
20210612103121 77 150 0.0 0.0 0.00 0.00 0.00 91 1010.8
20210612102538 77 150 0.0 0.0 0.00 0.00 0.00 91 1011.0
20210612102037 77 150 0.0 0.0 0.00 0.00 0.00 91 1011.0
20210612101551 76 150 0.0 0.0 0.00 0.00 0.00 91 1010.9
20210612101041 76 150 0.0 0.0 0.00 0.00 0.00 91 1010.8
20210612100117 76 150 0.0 0.0 0.00 0.00 0.00 91 1010.6
20210612095539 76 150 0.0 0.0 0.00 0.00 0.00 91 1010.5
20210612095036 76 150 0.0 0.0 0.00 0.00 0.00 91 1010.5
20210612094549 77 150 0.0 0.0 0.00 0.00 0.00 91 1010.6
20210612094035 76 150 0.0 0.0 0.00 0.00 0.00 91 1010.6
20210612093541 77 150 0.0 0.0 0.00 0.00 0.00 90 1010.7
20210612093110 77 150 0.0 0.0 0.00 0.00 0.00 90 1010.7
20210612092536 77 150 0.0 0.0 0.00 0.00 0.00 90 1010.7
20210612092033 77 150 0.0 0.0 0.00 0.00 0.00 90 1010.7
20210612091545 77 150 0.0 0.0 0.00 0.00 0.00 90 1010.9
20210612091035 77 150 0.0 0.0 0.00 0.00 0.00 90 1010.9
20210612090100 77 150 0.0 0.0 0.00 0.00 0.00 90 1010.8
20210612085533 77 150 0.0 0.0 0.00 0.00 0.00 90 1010.6
20210612085033 77 150 0.0 0.0 0.00 0.00 0.00 90 1010.7
20210612084638 77 150 0.0 0.0 0.00 0.00 0.00 90 1010.6
20210612084033 77 150 0.0 0.0 0.00 0.00 0.00 90 1010.5
20210612083532 77 150 0.0 0.0 0.00 0.00 0.00 90 1010.5
20210612083105 77 150 0.0 0.0 0.00 0.00 0.00 89 1010.6
20210612082532 77 150 0.0 0.0 0.00 0.00 0.00 89 1010.7
20210612082032 77 150 0.0 0.0 0.00 0.00 0.00 89 1010.7
20210612081652 77 149 0.0 0.0 0.00 0.00 0.00 89 1010.6
20210612081030 77 149 0.0 0.0 0.00 0.00 0.00 89 1010.4
20210612080057 77 163 0.0 0.0 0.00 0.00 0.00 89 1010.6
20210612075541 77 163 0.0 0.0 0.00 0.00 0.00 89 1010.6
20210612075107 77 163 0.0 0.0 0.00 0.00 0.00 89 1010.6
20210612074615 77 163 0.0 0.0 0.00 0.00 0.00 89 1010.5
20210612074032 77 163 0.0 0.0 0.00 0.00 0.00 88 1010.5
20210612073541 78 163 0.0 0.0 0.00 0.00 0.00 88 1010.5
20210612073055 78 146 0.0 0.0 0.00 0.00 0.00 88 1010.5
20210612072531 78 146 0.0 0.0 0.00 0.00 0.00 88 1010.5
20210612072028 78 146 0.0 0.0 0.00 0.00 0.00 88 1010.7
20210612071545 78 146 0.0 0.0 0.00 0.00 0.00 88 1010.7
20210612071031 78 146 0.0 0.0 0.00 0.00 0.00 88 1010.6
20210612070111 78 146 0.0 0.0 0.00 0.00 0.00 87 1010.6
20210612065527 78 146 0.0 0.0 0.00 0.00 0.00 87 1010.6
20210612065026 78 136 0.0 0.0 0.00 0.00 0.00 87 1010.7
20210612064536 78 98 0.0 0.0 0.00 0.00 0.00 87 1010.8
20210612064023 78 98 0.0 0.0 0.00 0.00 0.00 87 1010.8
20210612063523 79 96 0.0 0.0 0.00 0.00 0.00 86 1010.9
20210612063038 79 75 0.0 0.0 0.00 0.00 0.00 86 1010.9
20210612062521 79 71 0.0 0.0 0.00 0.00 0.00 86 1010.9
20210612062020 79 71 0.0 0.0 0.00 0.00 0.00 86 1010.9
20210612061549 79 71 0.0 0.0 0.00 0.00 0.00 86 1010.8
20210612061020 79 71 0.0 0.0 0.00 0.00 0.00 85 1010.8
20210612060022 79 121 0.0 0.0 0.00 0.00 0.00 85 1010.6
20210612055526 79 158 0.0 0.0 0.00 0.00 0.00 85 1010.7
20210612055019 80 158 0.0 0.0 0.00 0.00 0.00 85 1010.6
20210612054544 80 158 0.0 0.0 0.00 0.00 0.00 84 1010.6
20210612054019 80 158 0.0 0.0 0.00 0.00 0.00 84 1010.6
20210612053519 80 159 0.0 0.0 0.00 0.00 0.00 84 1010.6
20210612053031 80 223 0.0 0.0 0.00 0.00 0.00 84 1010.7
20210612052518 80 223 0.0 0.0 0.00 0.00 0.00 83 1010.7
20210612052019 80 197 0.0 0.0 0.00 0.00 0.00 83 1010.8
20210612051537 80 197 0.0 0.0 0.00 0.00 0.00 83 1010.8
20210612051028 80 197 0.0 0.0 0.00 0.00 0.00 83 1010.8
20210612050032 81 145 0.0 0.0 0.00 0.00 0.00 83 1010.8
20210612045520 81 154 0.0 0.0 0.00 0.00 0.00 82 1010.8
20210612045018 81 154 0.0 0.0 0.00 0.00 0.00 82 1010.7
20210612044037 81 157 0.0 0.0 0.00 0.00 0.00 82 1010.5
20210612043518 81 171 0.0 0.0 0.00 0.00 0.00 82 1010.3
20210612043109 81 171 0.0 0.0 0.00 0.00 0.00 81 1010.3
20210612042518 82 175 0.0 0.0 0.00 0.00 0.00 81 1010.2
20210612042030 82 167 0.0 0.0 0.00 0.00 0.00 81 1010.2
20210612041540 82 167 0.0 0.0 0.00 0.00 0.00 80 1010.2
20210612041018 82 186 0.0 0.0 0.00 0.00 0.00 80 1010.1
20210612040019 82 175 0.0 0.0 0.00 0.00 0.00 79 1010.0
20210612035519 82 176 0.0 0.0 0.00 0.00 0.00 79 1010.0
20210612035029 82 176 0.0 0.0 0.00 0.00 0.00 79 1010.0
20210612034646 83 152 0.0 0.0 0.00 0.00 0.00 78 1010.0
20210612034025 83 152 0.0 0.0 0.00 0.00 0.00 78 1010.0
20210612033519 83 151 0.0 0.0 0.00 0.00 0.00 77 1010.0